Els Cortals - Les Guilleries





Hora UTC 17:55
Temperatura 16.7 ºC
Humitat 92.0 %
Pressió 1006.9 hPa
Pluja 0.0 mm
Velocitat vent 0.0 km/h
Direcció vent E
Radiació solar 28.0 W/m²

Dades diàries 2020-08-03



Hora UTC (hivern +1h; estiu +2h)
Temperatura (ºC) Humitat (%) Pressió (hPa) Velocitat vent (km/h) Precipitació (mm) Radiació solar (W/m²)
Hora UTC Aire Humitat Pressió Vel. Dir. Vel. Max Dir. Intent. màx 5 min. Rad. Sol.
00:05 17.8 91.0 1007.7 0.0 WSW 0.0 0.0 0.0
00:10 17.8 92.0 1007.6 0.0 WSW 3.2 0.0 0.0
00:15 17.8 92.0 1007.5 0.0 WSW 8.0 0.0 0.0
00:20 17.8 92.0 1007.4 0.0 WNW 8.0 0.0 0.0
00:25 17.7 92.0 1007.5 0.0 W 8.0 0.0 0.0
00:30 17.7 92.0 1007.4 1.6 W 8.0 0.0 0.0
00:35 17.8 92.0 1007.5 0.0 NNW 9.7 0.0 0.0
00:40 17.9 92.0 1007.4 4.8 NW 9.7 0.0 0.0
00:45 18.0 93.0 1007.3 0.0 WNW 9.7 0.0 0.0
00:50 18.1 93.0 1007.2 0.0 W 8.0 0.0 0.0
00:55 18.2 93.0 1007.1 3.2 W 11.3 0.0 0.0
01:00 18.3 93.0 1007.1 6.4 SW 11.3 0.0 0.0
01:05 18.4 93.0 1006.9 3.2 SW 14.5 0.0 0.0
01:10 18.5 93.0 1007.0 8.0 W 14.5 0.0 0.0
01:15 18.6 93.0 1006.8 8.0 WSW 16.1 0.0 0.0
01:20 18.5 93.0 1006.6 9.7 WSW 16.1 0.0 0.0
01:25 18.3 92.0 1006.4 4.8 WNW 14.5 0.0 0.0
01:30 18.1 92.0 1006.3 3.2 WSW 20.9 0.0 0.0
01:35 17.8 92.0 1006.3 11.3 SW 20.9 0.0 0.0
01:40 17.7 92.0 1006.2 9.7 SW 19.3 0.0 0.0
01:45 17.4 91.0 1006.1 6.4 WSW 14.5 0.0 0.0
01:50 17.2 91.0 1006.1 3.2 SSW 16.1 0.0 0.0
01:55 17.0 89.0 1006.2 9.7 W 17.7 0.0 0.0
02:00 16.8 88.0 1006.4 3.2 N 22.5 0.0 0.0
02:05 16.6 86.0 1006.4 16.1 WSW 22.5 0.0 0.0
02:10 16.4 85.0 1006.6 14.5 SSW 22.5 0.0 0.0
02:15 16.4 84.0 1006.4 12.9 W 20.9 0.0 0.0
02:20 16.3 84.0 1006.4 3.2 SSW 20.9 0.0 0.0
02:25 16.3 83.0 1006.3 1.6 SW 17.7 0.0 0.0
02:30 16.3 83.0 1006.5 3.2 SW 17.7 0.0 0.0
02:35 16.3 82.0 1006.4 1.6 NNW 16.1 0.0 0.0
02:40 16.3 82.0 1006.4 0.0 SSW 14.5 0.0 0.0
02:45 16.3 83.0 1006.6 6.4 NW 11.3 0.0 0.0
02:50 16.4 82.0 1006.6 0.0 NNE 9.7 0.0 0.0
02:55 16.3 81.0 1006.7 8.0 SW 12.9 0.0 0.0
03:00 16.3 81.0 1006.6 9.7 WSW 14.5 0.0 0.0
03:05 16.2 80.0 1006.5 8.0 SSW 14.5 0.0 0.0
03:10 16.1 81.0 1006.5 6.4 SW 14.5 0.0 0.0
03:15 15.9 82.0 1006.5 3.2 SSW 14.5 0.0 0.0
03:20 15.7 83.0 1006.4 4.8 SSE 14.5 0.0 0.0
03:25 15.6 85.0 1006.5 0.0 SW 8.0 0.0 0.0
03:30 15.5 85.0 1006.5 1.6 W 6.4 0.0 0.0
03:35 15.6 86.0 1006.6 3.2 SW 6.4 0.0 0.0
03:40 15.6 85.0 1006.7 9.7 W 9.7 0.0 0.0
03:45 15.6 84.0 1006.7 9.7 SW 12.9 0.0 0.0
03:50 15.5 84.0 1006.8 0.0 SW 12.9 0.0 0.0
03:55 15.2 86.0 1006.8 8.0 WSW 11.3 0.0 0.0
04:00 14.9 87.0 1006.7 12.9 SW 14.5 0.0 0.0
04:05 14.5 88.0 1006.6 3.2 W 16.1 0.0 0.0
04:10 14.4 89.0 1006.6 8.0 WSW 16.1 0.0 0.0
04:15 14.3 89.0 1006.4 8.0 W 14.5 0.0 0.0
04:20 14.3 89.0 1006.2 0.0 WSW 14.5 0.0 0.0
04:25 14.3 89.0 1006.3 3.2 S 8.0 0.0 0.0
04:30 14.4 89.0 1006.6 3.2 SW 8.0 0.0 0.0
04:35 14.4 89.0 1006.6 0.0 SSW 8.0 0.0 0.0
04:40 14.6 89.0 1006.5 0.0 SW 8.0 0.0 0.0
04:45 14.6 89.0 1006.4 0.0 SW 8.0 0.0 0.0
04:50 14.6 89.0 1006.4 0.0 SW 1.6 0.0 0.0
04:55 14.6 89.0 1006.6 0.0 SW 1.6 0.0 0.0
05:00 14.6 89.0 1006.6 0.0 W 0.0 0.0 0.0
05:05 14.7 88.0 1006.6 0.0 NW 0.0 0.0 0.0
05:10 14.7 87.0 1006.5 0.0 NNW 9.7 0.0 0.0
05:15 14.7 87.0 1006.5 0.0 E 9.7 0.0 5.0
05:20 14.7 88.0 1006.3 0.0 E 6.4 0.0 9.0
05:25 14.7 89.0 1006.3 0.0 E 0.0 0.0 12.0
05:30 14.7 89.0 1006.6 0.0 E 0.0 0.0 14.0
05:35 14.6 89.0 1006.8 1.6 W 9.7 0.0 16.0
05:40 14.6 89.0 1006.8 3.2 NW 9.7 0.0 18.0
05:45 14.6 89.0 1006.9 6.4 NW 8.0 0.0 21.0
05:50 14.6 89.0 1006.9 0.0 NW 8.0 0.0 23.0
05:55 14.6 88.0 1007.0 0.0 NW 0.0 0.0 26.0
06:00 14.6 88.0 1007.1 0.0 NW 0.0 0.0 33.0
06:05 14.6 87.0 1006.7 0.0 ESE 0.0 0.0 46.0
06:10 14.6 87.0 1006.9 0.0 ESE 3.2 0.0 47.0
06:15 14.6 87.0 1006.7 3.2 ESE 6.4 0.0 49.0
06:20 14.7 89.0 1006.6 0.0 ESE 9.7 0.0 42.0
06:25 14.6 90.0 1006.9 0.0 SE 6.4 0.0 40.0
06:30 14.6 90.0 1006.7 0.0 SE 3.2 0.0 53.0
06:35 14.7 91.0 1006.9 0.0 SE 0.0 0.0 49.0
06:40 14.7 91.0 1007.1 0.0 SSW 3.2 0.0 56.0
06:45 14.7 91.0 1006.9 1.6 NNE 3.2 0.0 95.0
06:50 14.8 91.0 1006.8 0.0 ENE 3.2 0.0 114.0
06:55 14.8 91.0 1007.1 0.0 SSE 0.0 0.0 63.0
07:00 14.8 91.0 1007.0 0.0 E 1.6 0.0 60.0
07:05 14.8 91.0 1007.0 0.0 E 1.6 0.0 88.0
07:10 15.0 91.0 1006.9 0.0 E 0.0 0.0 427.0
07:15 15.3 91.0 1007.2 1.6 E 3.2 0.0 434.0
07:20 15.8 90.0 1007.3 0.0 ESE 6.4 0.0 461.0
07:25 16.3 86.0 1007.3 0.0 N 6.4 0.0 483.0
07:30 16.8 83.0 1007.5 0.0 SSE 1.6 0.0 401.0
07:35 16.8 81.0 1007.6 1.6 WSW 11.3 0.0 176.0
07:40 17.1 78.0 1007.3 0.0 WSW 11.3 0.0 441.0
07:45 17.3 76.0 1007.3 1.6 NNW 8.0 0.0 297.0
07:50 17.4 75.0 1007.5 0.0 NW 9.7 0.0 355.0
07:55 17.6 76.0 1007.3 0.0 N 9.7 0.0 468.0
08:00 17.8 76.0 1007.2 0.0 NE 9.7 0.0 469.0
08:05 18.0 73.0 1007.4 0.0 WNW 9.7 0.0 469.0
08:10 18.1 73.0 1007.3 0.0 SE 9.7 0.0 475.0
08:15 18.1 73.0 1007.5 0.0 WNW 9.7 0.0 499.0
08:20 18.2 72.0 1007.6 0.0 ENE 3.2 0.0 104.0
08:25 18.1 74.0 1007.7 0.0 SW 0.0 0.0 424.0
08:30 18.0 76.0 1007.8 0.0 W 9.7 0.0 338.0
08:35 18.1 77.0 1007.8 0.0 N 9.7 0.0 504.0
08:40 18.4 74.0 1007.7 3.2 S 8.0 0.0 510.0
08:45 18.4 73.0 1007.7 0.0 WSW 9.7 0.0 529.0
08:50 18.6 74.0 1007.7 1.6 NW 9.7 0.0 497.0
08:55 18.6 74.0 1007.7 9.7 NNW 11.3 0.0 606.0
09:00 18.8 74.0 1007.7 1.6 WNW 11.3 0.0 218.0
09:05 18.8 74.0 1007.7 0.0 N 3.2 0.0 647.0
09:10 19.2 74.0 1007.7 0.0 ENE 6.4 0.0 671.0
09:15 19.7 70.0 1007.8 3.2 NW 14.5 0.0 691.0
09:20 19.8 69.0 1007.7 0.0 ESE 14.5 0.0 687.0
09:25 20.0 70.0 1007.6 0.0 SSW 9.7 0.0 751.0
09:30 20.3 71.0 1007.7 1.6 E 12.9 0.0 582.0
09:35 20.1 71.0 1007.6 3.2 ESE 14.5 0.0 842.0
09:40 19.8 72.0 1007.6 6.4 E 14.5 0.0 844.0
09:45 19.9 71.0 1007.5 1.6 ESE 11.3 0.0 879.0
09:50 19.8 69.0 1007.6 0.0 S 11.3 0.0 218.0
09:55 19.5 70.0 1007.5 1.6 SSW 11.3 0.0 183.0
10:00 19.3 69.0 1007.7 9.7 WSW 11.3 0.0 190.0
10:05 19.3 69.0 1007.8 9.7 NW 11.3 0.0 142.0
10:10 19.2 67.0 1007.7 1.6 SSW 9.7 0.0 156.0
10:15 19.1 68.0 1007.7 11.3 WSW 16.1 0.0 174.0
10:20 19.2 69.0 1007.7 8.0 WSW 16.1 0.0 766.0
10:25 19.6 67.0 1007.7 3.2 WNW 14.5 0.0 814.0
10:30 19.8 65.0 1007.7 9.7 SSW 14.5 0.0 819.0
10:35 19.7 67.0 1007.6 6.4 SSE 16.1 0.0 816.0
10:40 20.1 69.0 1007.7 0.0 NE 16.1 0.0 812.0
10:45 20.4 65.0 1007.7 8.0 SSW 11.3 0.0 854.0
10:50 20.6 64.0 1007.6 6.4 WSW 11.3 0.0 868.0
10:55 20.7 65.0 1007.7 1.6 E 9.7 0.0 670.0
11:00 20.7 66.0 1007.6 12.9 S 14.5 0.0 916.0
11:05 20.7 65.0 1007.7 11.3 SSW 17.7 0.0 900.0
11:10 20.9 63.0 1007.7 3.2 SSW 20.9 0.0 923.0
11:15 21.3 68.0 1007.8 1.6 ESE 11.3 0.0 949.0
11:20 21.6 62.0 1007.9 17.7 SW 20.9 0.0 1005.0
11:25 21.2 64.0 1007.9 1.6 WSW 20.9 0.0 295.0
11:30 20.9 63.0 1007.9 8.0 SW 14.5 0.0 292.0
11:35 20.7 64.0 1007.9 6.4 NNW 12.9 0.0 374.0
11:40 20.8 66.0 1007.9 1.6 S 11.3 0.0 332.0
11:40 20.8 67.0 1007.9 8.0 S 9.7 0.0 297.0
11:50 20.8 64.0 1007.9 0.0 SE 11.3 0.0 914.0
11:55 21.2 63.0 1007.8 9.7 SW 16.1 0.0 1088.0
12:00 21.4 63.0 1007.9 6.4 SSE 16.1 0.0 345.0
12:05 21.5 62.0 1007.8 0.0 N 17.7 0.0 995.0
12:10 22.1 62.0 1007.8 1.6 SE 16.1 0.0 969.0
12:15 22.2 59.0 1007.8 0.0 SSW 14.5 0.0 1035.0
12:15 22.2 59.0 1007.8 0.0 SE 14.5 0.0 376.0
12:25 22.2 61.0 1007.7 1.6 NE 11.3 0.0 1055.0
12:30 22.6 67.0 1007.5 1.6 ESE 4.8 0.0 1037.0
12:35 22.3 66.0 1007.3 3.2 SSE 11.3 0.0 297.0
12:40 21.7 68.0 1007.3 1.6 E 11.3 0.0 348.0
12:45 21.3 69.0 1007.2 1.6 E 9.7 0.0 290.0
12:50 20.9 70.0 1007.2 8.0 E 11.3 0.0 315.0
12:55 20.6 71.0 1007.2 6.4 ENE 11.3 0.0 271.0
12:55 20.3 74.0 1007.2 11.3 ESE 11.3 0.0 274.0
13:05 20.3 75.0 1007.2 1.6 SSE 14.5 0.0 350.0
13:10 20.4 75.0 1007.1 1.6 ESE 14.5 0.0 925.0
13:15 20.6 74.0 1007.2 14.5 ENE 14.5 0.0 322.0
13:20 20.7 72.0 1007.2 8.0 E 16.1 0.0 274.0
13:25 20.6 73.0 1007.2 11.3 E 16.1 0.0 294.0
13:30 20.3 74.0 1007.1 8.0 ESE 19.3 0.0 251.0
13:35 20.0 76.0 1007.1 6.4 ESE 19.3 0.0 308.0
13:40 19.9 77.0 1007.0 14.5 E 14.5 0.0 926.0
13:45 20.1 77.0 1006.9 9.7 ESE 17.7 0.0 287.0
13:50 20.2 76.0 1006.8 6.4 SE 17.7 0.0 269.0
13:55 20.1 76.0 1006.9 4.8 ESE 16.1 0.0 207.0
14:00 19.8 78.0 1006.9 6.4 ENE 14.5 0.0 163.0
14:05 19.6 78.0 1007.0 0.0 E 14.5 0.0 204.0
14:10 19.4 79.0 1006.7 3.2 SE 12.9 0.0 257.0
14:15 19.5 80.0 1006.7 9.7 ENE 14.5 0.0 297.0
14:20 19.6 80.0 1006.8 11.3 E 17.7 0.0 911.0
14:25 19.9 79.0 1006.7 14.5 ESE 17.7 0.0 345.0
14:30 19.9 77.0 1006.6 8.0 NNE 16.1 0.0 279.0
14:35 19.5 79.0 1006.6 8.0 E 16.1 0.0 213.0
14:40 19.4 80.0 1006.5 4.8 E 14.5 0.0 285.0
14:45 19.4 80.0 1006.4 9.7 SE 14.5 0.0 225.0
14:50 19.4 80.0 1006.4 9.7 ENE 14.5 0.0 301.0
14:55 19.2 80.0 1006.4 4.8 E 14.5 0.0 132.0
15:00 18.9 81.0 1006.6 1.6 ENE 14.5 0.0 105.0
15:05 18.8 82.0 1006.6 8.0 ENE 14.5 0.0 97.0
15:10 18.6 82.0 1006.6 6.4 ENE 14.5 0.0 120.0
15:15 18.4 83.0 1006.5 9.7 ESE 11.3 0.0 128.0
15:20 18.3 84.0 1006.5 4.8 E 14.5 0.0 158.0
15:25 18.4 84.0 1006.5 6.4 E 16.1 0.0 301.0
15:30 18.6 83.0 1006.5 9.7 ESE 12.9 0.0 294.0
15:35 19.0 83.0 1006.4 8.0 ENE 14.5 0.0 693.0
15:40 19.1 82.0 1006.5 3.2 ENE 16.1 0.0 635.0
15:45 19.3 82.0 1006.5 8.0 E 16.1 0.0 128.0
15:50 19.2 82.0 1006.6 6.4 E 12.9 0.0 200.0
15:55 18.9 82.0 1006.5 8.0 ENE 14.5 0.0 195.0
16:00 18.7 83.0 1006.6 6.4 E 16.1 0.0 141.0
16:05 18.4 84.0 1006.5 4.8 ENE 16.1 0.0 104.0
16:10 18.3 85.0 1006.7 8.0 ENE 12.9 0.0 54.0
16:15 18.1 86.0 1006.7 1.6 ENE 12.9 0.0 46.0
16:20 17.9 86.0 1006.8 1.6 NE 11.3 0.0 58.0
16:25 17.8 87.0 1006.6 6.4 ESE 11.3 0.0 67.0
16:30 17.8 88.0 1006.7 3.2 E 11.3 0.0 60.0
16:35 17.7 89.0 1006.7 3.2 E 11.3 0.0 33.0
16:40 17.6 89.0 1006.8 0.0 E 11.3 0.0 51.0
16:45 17.5 90.0 1006.7 6.4 E 11.3 0.0 58.0
16:50 17.4 90.0 1006.9 0.0 ENE 11.3 0.0 54.0
16:55 17.4 90.0 1006.8 9.7 ENE 9.7 0.0 72.0
17:00 17.3 91.0 1006.7 3.2 ENE 9.7 0.0 35.0
17:05 17.2 91.0 1006.8 6.4 ESE 14.5 0.0 23.0
17:10 17.2 91.0 1006.7 6.4 E 14.5 0.0 14.0
17:15 17.2 91.0 1006.6 8.0 ENE 11.3 0.0 14.0
17:20 17.2 91.0 1006.4 6.4 ENE 11.3 0.0 23.0
17:25 17.1 91.0 1006.7 0.0 NE 11.3 0.0 11.0
17:30 17.1 91.0 1006.7 8.0 ESE 12.9 0.0 16.0
17:35 16.9 92.0 1006.7 4.8 SE 14.5 0.0 9.0
17:40 16.9 92.0 1006.9 3.2 ENE 11.3 0.0 11.0
17:45 16.8 92.0 1006.9 0.0 E 9.7 0.0 12.0
17:50 16.8 92.0 1006.8 1.6 ENE 9.7 0.0 26.0
17:55 16.7 92.0 1006.9 0.0 E 9.7 0.0 28.0
Màxima 22.6 93.0 1007.9 17.7 SW 22.5 0.0 1088.0
Mínima 14.3 59.0 1006.1
Total 0.0